TimeEDT,TemperatureF,Dew PointF,Humidity,Sea Level PressureIn,VisibilityMPH,Wind Direction,Wind SpeedMPH,Gust SpeedMPH,PrecipitationIn,Events,Conditions,WindDirDegrees,DateUTC
12:58 AM,48.9,44.1,83,30.12,10.0,NE,9.2,17.3,N/A,,Mostly Cloudy,40,2013-03-18 04:58:00
1:58 AM,48.9,45.0,86,30.12,10.0,NE,10.4,17.3,N/A,,Overcast,40,2013-03-18 05:58:00
2:45 AM,48.2,44.6,87,30.12,10.0,NE,11.5,19.6,N/A,,Overcast,40,2013-03-18 06:45:00
2:58 AM,48.9,45.0,86,30.12,10.0,NNE,11.5,18.4,N/A,,Overcast,30,2013-03-18 06:58:00
3:58 AM,50.0,46.0,86,30.10,10.0,NE,13.8,20.7,N/A,,Overcast,40,2013-03-18 07:58:00
4:58 AM,48.9,46.0,90,30.10,10.0,NE,10.4,19.6,N/A,,Overcast,50,2013-03-18 08:58:00
5:58 AM,48.9,46.0,90,30.08,10.0,NE,10.4,18.4,N/A,,Overcast,50,2013-03-18 09:58:00
6:58 AM,48.9,46.0,90,30.11,10.0,NE,11.5,18.4,N/A,,Overcast,40,2013-03-18 10:58:00
7:58 AM,50.0,46.0,86,30.13,9.0,NNE,16.1,23.0,N/A,,Overcast,20,2013-03-18 11:58:00
8:58 AM,50.0,46.0,86,30.13,9.0,NNE,13.8,21.9,N/A,,Overcast,20,2013-03-18 12:58:00
9:58 AM,52.0,46.9,83,30.12,9.0,NNE,15.0,24.2,N/A,,Overcast,20,2013-03-18 13:58:00
10:58 AM,53.1,48.0,83,30.11,10.0,NNE,16.1,23.0,N/A,,Overcast,20,2013-03-18 14:58:00
11:58 AM,57.0,48.9,74,30.09,10.0,NE,11.5,-,N/A,,Overcast,40,2013-03-18 15:58:00
12:42 PM,60.8,51.8,72,30.07,10.0,NNE,12.7,-,N/A,,Overcast,20,2013-03-18 16:42:00
12:58 PM,62.1,52.0,70,30.07,10.0,North,10.4,-,N/A,,Overcast,10,2013-03-18 16:58:00
1:58 PM,63.0,53.1,70,30.05,10.0,NNE,6.9,-,N/A,,Mostly Cloudy,20,2013-03-18 17:58:00
2:08 PM,64.4,53.6,68,30.04,10.0,NNE,6.9,-,N/A,,Partly Cloudy,20,2013-03-18 18:08:00
2:58 PM,63.0,54.0,72,30.00,10.0,Variable,4.6,-,N/A,,Overcast,0,2013-03-18 18:58:00
3:58 PM,66.0,54.0,65,29.98,10.0,ENE,4.6,-,N/A,,Clear,60,2013-03-18 19:58:00
4:58 PM,64.9,54.0,68,29.98,10.0,South,3.5,-,N/A,,Clear,180,2013-03-18 20:58:00
5:58 PM,63.0,54.0,72,29.97,10.0,South,4.6,-,N/A,,Clear,180,2013-03-18 21:58:00
6:58 PM,60.1,53.1,78,29.97,10.0,SSE,3.5,-,N/A,,Clear,160,2013-03-18 22:58:00
7:58 PM,57.9,55.0,90,29.95,8.0,Calm,Calm,-,N/A,,Overcast,0,2013-03-18 23:58:00
8:58 PM,55.9,53.1,90,29.93,7.0,SE,4.6,-,N/A,,Clear,140,2013-03-19 00:58:00
9:58 PM,55.0,53.1,93,29.92,6.0,ESE,3.5,-,N/A,,Clear,120,2013-03-19 01:58:00
10:58 PM,55.0,54.0,96,29.91,9.0,Calm,Calm,-,N/A,,Clear,0,2013-03-19 02:58:00
11:58 PM,55.9,54.0,93,29.91,8.0,NNE,3.5,-,N/A,,Overcast,30,2013-03-19 03:58:00